Location: Bernay
(48.6766°N, 2.9386°E)
Time: 16:59:16
(UTC+00:00)

Meteor 1-16 Rocket - Visible Passes

Search period start: 11 April 2026 00:00
Search period end: 21 April 2026 00:00
Orbit: 789 x 905 km, 81.2° (Epoch: 11 April)

Date Brightness Start Highest point End Pass type
(mag) Time Alt. Az. Time Alt. Az. Time Alt. Az.
11 Apr 5.1 20:25:41 10° SSW 20:31:29 55° WNW 20:37:16 10° N visible
11 Apr 7.3 22:14:13 10° WNW 22:15:45 11° NW 22:17:18 10° NW visible
12 Apr 4.9 20:12:29 10° SSW 20:18:20 60° WNW 20:24:10 10° N visible
12 Apr 7.3 22:00:19 10° WNW 22:02:31 12° NW 22:04:42 10° NNW visible
13 Apr 4.8 19:59:18 10° SSW 20:05:11 66° WNW 20:11:04 10° N visible
13 Apr 7.2 21:46:36 10° W 21:49:16 13° NW 21:51:55 10° NNW visible
14 Apr 4.7 19:46:09 10° SSW 19:52:03 72° WNW 19:57:57 10° N visible
14 Apr 7.2 21:32:58 10° W 21:36:01 14° NW 21:39:04 10° NNW visible
15 Apr 4.5 19:32:59 10° SSW 19:38:55 78° WNW 19:44:49 10° N visible
15 Apr 7.2 21:19:24 10° W 21:22:47 15° WNW 21:26:10 10° NNW visible
16 Apr 4.5 19:19:52 10° SSW 19:25:48 85° WNW 19:31:41 10° N visible
16 Apr 7.2 21:05:53 10° W 21:09:34 17° WNW 21:13:13 10° NNW visible
17 Apr 7.3 04:13:10 10° NNE 04:16:44 17° ENE 04:20:13 10° E visible
17 Apr 4.4 19:06:45 10° S 19:12:40 88° E 19:18:33 10° NNE visible
17 Apr 7.1 20:52:24 10° WSW 20:56:20 18° WNW 21:00:15 10° NNW visible
18 Apr 7.4 04:00:15 10° NNE 04:03:30 15° ENE 04:06:41 10° E visible
18 Apr 7.1 20:38:57 10° WSW 20:43:07 20° WNW 20:47:16 10° NNW visible
19 Apr 7.5 03:47:22 10° NNE 03:50:15 14° NE 03:53:05 10° E visible
19 Apr 7.0 20:25:32 10° WSW 20:29:55 21° WNW 20:34:16 10° NNW visible
20 Apr 7.6 03:34:33 10° NNE 03:37:00 13° NE 03:39:25 10° E visible
20 Apr 6.9 20:12:08 10° WSW 20:16:42 23° WNW 20:21:15 10° N visible
